Zurück zum Katalog

INTELSAT 33E DEB

AktivGEO
NORAD 62003·DEBRIS· XX

Gestartet Aug 24, 2016 von Guiana Space Centre

Loading…

TLE

AktuellSource: Space-Track

Epoche: Sep 13, 2026, 23:37 UTC

1 62003U 16053V   26256.98463971 -.00000332  00000-0  00000-0 0  9993
2 62003   1.8487  86.0019 0009526 208.9118 151.7980  1.00447419  6979

Verfolge INTELSAT 33E DEB in Echtzeit mit AllMySat

Download on the App Store